This is the latest recevied weather packets stored in our database for station/object W1GK. If no packets are shown the sender has not sent any weather packets the latest 10 day(s).
| Time | Temp. | Humidity | Pressure | Rain* | Wind** | Luminosity | Snow |
|---|---|---|---|---|---|---|---|
| 1778121000 | 26.67° C | 17% | 1014 hPa | 0 mm | - | 5 W/m² | - |
| 1778120400 | 27.22° C | 17% | 1013.9 hPa | 0 mm | - | 9 W/m² | - |
| 1778119800 | 27.22° C | 17% | 1013.9 hPa | 0 mm | - | 12 W/m² | - |
| 1778119199 | 27.78° C | 17% | 1013.9 hPa | 0 mm | - | 16 W/m² | - |
| 1778118600 | 27.78° C | 17% | 1013.9 hPa | 0 mm | - | 19 W/m² | - |
| 1778117998 | 27.78° C | 17% | 1013.9 hPa | 0 mm | - | 23 W/m² | - |
| 1778117399 | 28.33° C | 16% | 1013.9 hPa | 0 mm | - | 149 W/m² | - |
| 1778116799 | 28.89° C | 16% | 1013.9 hPa | 0 mm | - | 179 W/m² | - |
| 1778116198 | 29.44° C | 15% | 1013.9 hPa | 0 mm | - | 211 W/m² | - |
| 1778115599 | 28.89° C | 16% | 1013.9 hPa | 0 mm | - | 241 W/m² | - |
| 1778115000 | 28.33° C | 16% | 1013.9 hPa | 0 mm | - | 271 W/m² | - |
| 1778114401 | 29.44° C | 16% | 1014 hPa | 0 mm | - | 302 W/m² | - |
| 1778113798 | 30° C | 16% | 1013.9 hPa | 0 mm | - | 336 W/m² | - |
| 1778113198 | 30° C | 16% | 1013.9 hPa | 0 mm | - | 366 W/m² | - |
| 1778112599 | 30° C | 16% | 1014 hPa | 0 mm | - | 397 W/m² | - |
| 1778112000 | 29.44° C | 16% | 1014 hPa | 0 mm | - | 431 W/m² | - |
| 1778111398 | 28.89° C | 17% | 1014 hPa | 0 mm | - | 461 W/m² | - |
| 1778110798 | 28.89° C | 17% | 1014 hPa | 0 mm | - | 492 W/m² | - |
| 1778110200 | 28.89° C | 17% | 1014.1 hPa | 0 mm | - | 520 W/m² | - |
| 1778109598 | 30° C | 16% | 1014.1 hPa | 0 mm | - | 552 W/m² | - |
| 1778108999 | 30° C | 17% | 1014.3 hPa | 0 mm | - | 582 W/m² | - |
| 1778108400 | 30.56° C | 16% | 1014.4 hPa | 0 mm | - | 608 W/m² | - |
| 1778107799 | 30° C | 17% | 1014.5 hPa | 0 mm | - | 633 W/m² | - |
| 1778107198 | 30.56° C | 17% | 1014.7 hPa | 0 mm | - | 657 W/m² | - |
| 1778106598 | 29.44° C | 17% | 1014.8 hPa | 0 mm | - | 693 W/m² | - |
* Rain latest hour (hover to see other rain measurements)
** Current wind speed in m/s (hover to see current wind gust speed)